Regional Weather Roundup
Issued by NWS

Home | Current Version | Previous Version | Text Only | Print | Product List | Glossary Off
Versions: 1 2 3 4 5 6 7 8 9 10 11 12 13 14 15 16 17 18 19 20 21 22 23 24 25 26 27

000
ASUS45 KBOU 280407
RWRCO

WEATHER ROUNDUP FOR COLORADO
NATIONAL WEATHER SERVICE DENVER/BOULDER CO
1000 PM MDT SAT AUG 27 2016

NOTE: "FAIR" INDICATES FEW OR NO CLOUDS BELOW 12000 FEET WITH NO
SIGNIFICANT WEATHER AND/OR OBSTRUCTIONS TO VISIBILITY.

COZ001>005-013-030-031-280500-
...NORTHWEST COLORADO...

CITY           SKY/WX    TMP DP  RH WIND       PRES   REMARKS
CRAIG          FAIR      55  41  59 CALM      30.20R
HAYDEN         FAIR      61  34  36 NW5       30.22R
MEEKER         FAIR      57  43  59 CALM      30.23R
MOUNT WERNER   NOT AVBL
STEAMBOAT SPGS FAIR      58  32  37 E7        30.24S
WALDEN         FAIR      41  28  60 SE9       30.34R
$$

COZ006>008-011-280500-
...WEST CENTRAL VALLEYS...

CITY           SKY/WX    TMP DP  RH WIND       PRES   REMARKS
GRAND JUNCTION FAIR      68  46  45 E9        30.15R
MONTROSE       FAIR      63  47  55 SE6       30.23R
EAGLE          FAIR      63  41  45 CALM      30.26R
RIFLE          FAIR      65  49  56 CALM      30.19R
DELTA          NOT AVBL
NUCLA          FAIR     N/A N/A N/A CALM      30.29R
$$

COZ017>023-064>068-280500-
...SOUTHWEST COLORADO...

CITY           SKY/WX    TMP DP  RH WIND       PRES   REMARKS
DURANGO        FAIR      54  48  80 N6        30.30R
CORTEZ         MOCLDY    61  52  72 NE5       30.24R
PAGOSA SPRINGS CLOUDY    55  46  72 CALM      30.36S
TELLURIDE      DRIZZLE   49  45  88 SE7       30.45R
WOLF CREEK PAS FOG       36  36 100 NE5       30.59S VSB 1/2
$$

COZ009-010-012-014-032>034-037-058>063-280500-
...CENTRAL COLORADO...

CITY           SKY/WX    TMP DP  RH WIND       PRES   REMARKS
ASPEN          FAIR      53  44  71 SW8       30.32R
BUENA VISTA    FAIR      54  44  69 CALM      30.33R
COPPER MTN     FAIR      46  32  57 CALM      30.59R
BERTHOUD PASS  FAIR      39  27  60 N8        30.60S
COTTONWOOD PAS FAIR      54  36  50 SW10      30.44S
GUNNISON       FAIR      54  46  76 CALM      30.38S
KREMMLING      FAIR      54  34  47 CALM      30.29S
LEADVILLE      FAIR      45  35  68 E5        30.44R
MONARCH PASS   FOG       37  36  93 SW16      30.67S VSB<1/4
SALIDA         FAIR      60  40  48 SW8       30.37S
SUNLIGHT       FAIR      48  37  66 CALM      30.54R
WILKERSON PASS FAIR      46  32  57 W6        30.56R
$$

COZ069>075-280500-
...SAN LUIS VALLEY/SANGRE DE CRISTO MOUNTAINS...

CITY           SKY/WX    TMP DP  RH WIND       PRES   REMARKS
ALAMOSA        MOCLDY    52  45  77 N6        30.34R
LA VETA PASS   CLOUDY    45  37  76 S16G22    30.46R
SAGUACHE       FAIR      54  45  71 N12       30.34F
$$

COZ035-036-038>040-280500-
...NORTHERN COLORADO FRONT RANGE...

CITY           SKY/WX    TMP DP  RH WIND       PRES   REMARKS
DENVER INTL AP FAIR      62  45  53 SE12      30.12R
DMNS CITY PARK   N/A     69  44  40 SE9       30.12R
AURORA         PTCLDY    67  46  46 S14       30.14R
FRONT RANGE AP NOT AVBL
ERIE MUNI ARPT NOT AVBL
BOULDER MUN AP FAIR      66  37  34 W5        30.11R
CENTENNIAL     FAIR      67  45  45 S13       30.15R
BROOMFIELD     MOCLDY    72  37  28 SW9       30.14R
FORT COLLINS   FAIR      70  41  35 S3        30.09R
LONGMONT       FAIR      67  43  41 NW5       30.11S
$$

COZ041-046-047-076>085-087-088-280500-
...PIKES PEAK/PALMER DIVIDE AND SOUTHERN FOOTHILLS...

CITY           SKY/WX    TMP DP  RH WIND       PRES   REMARKS
COLO. SPRINGS  FAIR      65  45  48 NW3       30.23R
A. F. ACADEMY  FAIR      62  47  56 SE6       30.23R
SCHRIEVER AFB  NOT AVBL
ELLICOTT       NOT AVBL
FALCON         FAIR      58  45  61 NE5       30.26R
FORT CARSON    FAIR      67  46  45 SE2       30.19R
LIMON          FAIR      58  51  78 SE7       30.16R
MONUMENT HILL  MOCLDY    55  45  67 S9        30.27R
TRINIDAD       CLOUDY    69  43  38 S5        30.18R
$$

COZ042>045-048>051-090-091-280500-
...NORTHEAST COLORADO...

CITY           SKY/WX    TMP DP  RH WIND       PRES   REMARKS
GREELEY ARPT   FAIR      64  48  55 CALM      30.08R
AKRON          FAIR      62  45  53 SE12      30.11R
BURLINGTON     FAIR      63  54  72 S13       30.09R
WRAY           NOT AVBL
STERLING       FAIR      68  50  52 S6        30.05R
HOLYOKE        FAIR      66  61  82 E5        30.07R
FORT MORGAN    FAIR      64  45  51 E6        30.09R
$$

COZ086-089-092>099-280500-
...SOUTHEAST COLORADO...

CITY           SKY/WX    TMP DP  RH WIND       PRES   REMARKS
PUEBLO         CLOUDY    69  54  58 N8        30.12S
LA JUNTA       FAIR      75  52  44 S9        30.06R
LAMAR          FAIR      71  59  65 SE8       30.03S
SPRINGFIELD      N/A     67  62  84 SE13      30.13R
$$




USA.gov is the U.S. government's official web portal to all federal, state and local government web resources and services.